| time (UTC) | temp F | wind direction | speed knots | gust knots | rain 1hr in | rain 24hr in | rain mn in | humidity % | barometer mb |
| 20260505041531 | 58 | 202 | 1.7 | 5.2 | 0.00 | 0.00 | 0.00 | 56 | 1012.7 |
| 20260505040107 | 60 | 213 | 0.9 | 3.5 | 0.00 | 0.00 | 0.00 | 54 | 1012.5 |
| 20260505034528 | 61 | 231 | 2.6 | 7.8 | 0.00 | 0.00 | 0.00 | 51 | 1012.3 |
| 20260505033030 | 62 | 223 | 0.9 | 5.2 | 0.00 | 0.00 | 0.00 | 49 | 1012.1 |
| 20260505031533 | 64 | 219 | 2.6 | 8.7 | 0.00 | 0.00 | 0.00 | 46 | 1011.9 |
| 20260505030034 | 65 | 213 | 2.6 | 9.6 | 0.00 | 0.00 | 0.00 | 45 | 1011.7 |
| 20260505023031 | 69 | 232 | 2.6 | 8.7 | 0.00 | 0.00 | 0.00 | 41 | 1011.5 |
| 20260505021605 | 69 | 295 | 2.6 | 7.0 | 0.00 | 0.00 | 0.00 | 40 | 1011.4 |
| 20260505020035 | 71 | 291 | 2.6 | 8.7 | 0.00 | 0.00 | 0.00 | 38 | 1011.3 |
| 20260505014532 | 72 | 258 | 4.3 | 11.3 | 0.00 | 0.00 | 0.00 | 36 | 1011.3 |
| 20260505013034 | 73 | 271 | 3.5 | 11.3 | 0.00 | 0.00 | 0.00 | 35 | 1011.4 |
| 20260505011536 | 73 | 245 | 3.5 | 11.3 | 0.00 | 0.00 | 0.00 | 34 | 1011.3 |
| 20260505010033 | 74 | 237 | 5.2 | 16.5 | 0.00 | 0.00 | 0.00 | 33 | 1011.3 |
| 20260505004529 | 75 | 237 | 5.2 | 18.2 | 0.00 | 0.00 | 0.00 | 33 | 1011.4 |
| 20260505003031 | 76 | 234 | 6.1 | 15.6 | 0.00 | 0.00 | 0.00 | 33 | 1011.3 |
| 20260505001528 | 76 | 234 | 7.8 | 15.6 | 0.00 | 0.00 | 0.00 | 33 | 1011.2 |
| 20260505000038 | 77 | 230 | 7.0 | 14.8 | 0.00 | 0.00 | 0.00 | 33 | 1011.3 |
| 20260504233031 | 79 | 236 | 4.3 | 12.2 | 0.00 | 0.00 | 0.00 | 33 | 1011.2 |
| 20260504230031 | 80 | 249 | 4.3 | 13.0 | 0.00 | 0.00 | 0.00 | 33 | 1011.3 |
| 20260504224531 | 80 | 237 | 5.2 | 13.0 | 0.00 | 0.00 | 0.00 | 33 | 1011.4 |
| 20260504223106 | 80 | 244 | 5.2 | 12.2 | 0.00 | 0.00 | 0.00 | 32 | 1011.4 |
| 20260504221536 | 80 | 243 | 6.1 | 12.2 | 0.00 | 0.00 | 0.00 | 32 | 1011.5 |
| 20260504220107 | 80 | 256 | 5.2 | 12.2 | 0.00 | 0.00 | 0.00 | 33 | 1011.6 |
| 20260504214535 | 80 | 275 | 6.1 | 14.8 | 0.00 | 0.00 | 0.00 | 32 | 1011.7 |
| 20260504213033 | 80 | 267 | 6.1 | 14.8 | 0.00 | 0.00 | 0.00 | 32 | 1011.7 |
| 20260504211532 | 80 | 271 | 7.0 | 12.2 | 0.00 | 0.00 | 0.00 | 31 | 1011.7 |
| 20260504203031 | 81 | 259 | 5.2 | 13.0 | 0.00 | 0.00 | 0.00 | 32 | 1011.9 |
| 20260504201607 | 81 | 273 | 5.2 | 14.8 | 0.00 | 0.00 | 0.00 | 33 | 1011.9 |
| 20260504200036 | 80 | 267 | 4.3 | 11.3 | 0.00 | 0.00 | 0.00 | 34 | 1012.0 |
| 20260504194534 | 80 | 288 | 5.2 | 11.3 | 0.00 | 0.00 | 0.00 | 35 | 1011.9 |
| 20260504193030 | 80 | 312 | 3.5 | 9.6 | 0.00 | 0.00 | 0.00 | 37 | 1012.0 |
| 20260504191533 | 79 | 315 | 3.5 | 9.6 | 0.00 | 0.00 | 0.00 | 38 | 1012.1 |
| 20260504190036 | 78 | 342 | 4.3 | 9.6 | 0.00 | 0.00 | 0.00 | 41 | 1012.2 |
| 20260504184533 | 77 | 345 | 4.3 | 8.7 | 0.00 | 0.00 | 0.00 | 41 | 1012.3 |
| 20260504183136 | 77 | 359 | 4.3 | 8.7 | 0.00 | 0.00 | 0.00 | 41 | 1012.3 |
| 20260504181529 | 77 | 8 | 3.5 | 7.0 | 0.00 | 0.00 | 0.00 | 41 | 1012.2 |
| 20260504180036 | 76 | 349 | 4.3 | 8.7 | 0.00 | 0.00 | 0.00 | 41 | 1012.2 |
| 20260504173032 | 76 | 355 | 2.6 | 6.1 | 0.00 | 0.00 | 0.00 | 41 | 1012.3 |
| 20260504171530 | 75 | 357 | 3.5 | 6.1 | 0.00 | 0.00 | 0.00 | 42 | 1012.3 |
| 20260504110106 | 57 | 141 | 5.2 | 8.7 | 0.00 | 0.00 | 0.00 | 57 | 1011.8 |
| 20260504090107 | 59 | 152 | 6.1 | 10.4 | 0.00 | 0.00 | 0.00 | 52 | 1011.9 |
| 20260504081647 | 60 | 150 | 6.1 | 10.4 | 0.00 | 0.00 | 0.00 | 50 | 1012.2 |
| 20260504070106 | 61 | 161 | 7.0 | 12.2 | 0.00 | 0.00 | 0.00 | 49 | 1012.1 |
| 20260504044530 | 64 | 158 | 5.2 | 9.6 | 0.00 | 0.00 | 0.00 | 46 | 1012.0 |
| 20260504043105 | 64 | 153 | 5.2 | 10.4 | 0.00 | 0.00 | 0.00 | 46 | 1011.9 |